Location: Blankensee
(53.5126°N, 14.3055°E)
Time: 18:56:48
(UTC+00:00)

Uosat 12 SS-18 rocket - Pass Details

Date: 08 August 2020
Orbit: 602 x 1382 km, 64.6° (Epoch: 20 September)

Event Time Altitude Azimuth Distance (km) Brightness Sun altitude
Exits shadow 01:18:25 25° 220° (SW) 1,410 5.3 -15.1°
Maximum altitude 01:21:17 84° 134° (SE) 667 4.1 -14.8°
Drops below altitude 10° 01:25:41 10° 46° (NE) 1,985 8.0 -14.5°
Sets 01:27:52 0° 46° (NE) 2,870 9.2 -14.3°
